San Diego, CA

2:06 PM PST on January 17, 2017 (GMT -0800)
North Island Naval Air Station

Weather History for KNZY - October, 2012

Change the Weather History Date:

Tuesday, October 30, 2012

  Actual Average Record
Temperature  
Mean Temperature 65 °F -  
Max Temperature 73 °F 66 °F 84 °F (1999)
Min Temperature 57 °F 54 °F 51 °F (2004)
Growing Degree Days 15 (Base 50)    
Moisture  
Dew Point 56 °F    
Average Humidity 78    
Maximum Humidity 90    
Minimum Humidity 55    
Precipitation  
Precipitation 0.00 in - - ()
Sea Level Pressure  
Sea Level Pressure 30.03 in    
Wind  
Wind Speed 3 mph (NNW)    
Max Wind Speed 13 mph    
Max Gust Speed -    
Visibility 5 miles    
Events Fog    
Averages and records for this station are not official NWS values.
T = Trace of Precipitation, MM = Missing Value Source: NWS Daily Summary

Daily Weather History Graph

Daily Weather History Graph

Search for Another Location

Airport or City:

Trip Planner

Search our weather history database for the weather conditions in past years. The results will help you decide how hot, cold, wet, or windy it might be!

Date:

Astronomy

Oct. 30, 2012 Rise Set
Actual Time 7:05 AM PDT 5:59 PM PDT
Civil Twilight 6:39 AM PDT 6:24 PM PDT
Nautical Twilight 6:10 AM PDT 6:53 PM PDT
Astronomical Twilight 5:42 AM PDT 7:22 PM PDT
Moon 6:36 PM PDT (10/30) 7:51 AM PDT (10/30)
Length of Visible Light 11h 44m
Length of Day
10h 53m
Full, 99% of the Moon is Illuminated
Oct 30
Full
Nov 6
Last Quarter
Nov 13
New
Nov 20
First Quarter
Nov 28
Full

Hourly Weather History & Observations

Time (PDT) Temp. Dew Point Humidity Pressure Visibility Wind Dir Wind Speed Gust Speed Precip Events Conditions
12:52 AM 61.0 °F 57.9 °F 90% 30.05 in 0.1 mi Calm Calm - N/A Fog Fog
1:52 AM 61.0 °F 57.9 °F 90% 30.05 in 0.2 mi ESE 3.5 mph - N/A Fog Fog
2:52 AM 61.0 °F 57.0 °F 87% 30.05 in 0.5 mi North 3.5 mph - N/A Fog Fog
3:52 AM 59.0 °F 55.0 °F 87% 30.03 in 0.2 mi Calm Calm - N/A Fog Fog
4:52 AM 59.0 °F 55.9 °F 90% 30.04 in 0.1 mi Calm Calm - N/A Fog Fog
5:40 AM 60.8 °F 55.4 °F 82% 30.04 in 0.5 mi NNE 5.8 mph - N/A Fog Fog
5:52 AM 60.1 °F 55.9 °F 86% 30.05 in 1.0 mi NNE 3.5 mph - N/A   Overcast
6:09 AM 60.8 °F 55.4 °F 82% 30.04 in 0.8 mi NNE 5.8 mph - N/A   Overcast
6:52 AM 59.0 °F 55.0 °F 87% 30.04 in 1.5 mi Calm Calm - N/A   Scattered Clouds
7:16 AM 57.2 °F 53.6 °F 88% 30.04 in 0.8 mi Calm Calm - N/A   Mostly Cloudy
7:33 AM 57.2 °F 53.6 °F 88% 30.04 in 0.8 mi Calm Calm - N/A   Mist
7:52 AM 57.9 °F 55.0 °F 90% 30.04 in 0.8 mi Calm Calm - N/A   Mostly Cloudy
8:15 AM 59.0 °F 55.4 °F 88% 30.05 in 6.0 mi Calm Calm - N/A   Scattered Clouds
8:52 AM 61.0 °F 57.0 °F 87% 30.06 in 6.0 mi Calm Calm - N/A   Partly Cloudy
9:52 AM 64.9 °F 55.9 °F 73% 30.05 in 6.0 mi North 3.5 mph - N/A   Haze
10:52 AM 70.0 °F 53.1 °F 55% 30.04 in 7.0 mi NNW 3.5 mph - N/A   Scattered Clouds
11:52 AM 71.1 °F 55.0 °F 57% 30.04 in 8.0 mi NW 10.4 mph - N/A   Scattered Clouds
12:52 PM 70.0 °F 57.0 °F 63% 30.02 in 8.0 mi NW 11.5 mph - N/A   Scattered Clouds
1:52 PM 73.0 °F 57.0 °F 57% 29.99 in 9.0 mi WNW 8.1 mph - N/A   Scattered Clouds
2:52 PM 73.0 °F 57.0 °F 57% 29.97 in 10.0 mi WNW 8.1 mph - N/A   Scattered Clouds
3:52 PM 72.0 °F 59.0 °F 64% 29.98 in 10.0 mi NW 12.7 mph - N/A   Scattered Clouds
4:52 PM 70.0 °F 59.0 °F 68% 29.98 in 10.0 mi NW 11.5 mph - N/A   Scattered Clouds
5:52 PM 68.0 °F 57.9 °F 70% 29.99 in 10.0 mi WNW 8.1 mph - N/A   Scattered Clouds
6:52 PM 66.9 °F 57.9 °F 73% 30.00 in 10.0 mi NNW 3.5 mph - N/A   Scattered Clouds
7:52 PM 66.9 °F 57.9 °F 73% 30.00 in 10.0 mi North 4.6 mph - N/A   Scattered Clouds
8:52 PM 64.0 °F 57.0 °F 78% 30.00 in 10.0 mi Calm Calm - N/A   Scattered Clouds
9:52 PM 62.1 °F 57.0 °F 84% 30.01 in 7.0 mi Calm Calm - N/A   Partly Cloudy
10:52 PM 61.0 °F 57.0 °F 87% 30.02 in 8.0 mi Calm Calm - N/A   Partly Cloudy
11:52 PM 61.0 °F 57.0 °F 87% 30.02 in 8.0 mi Calm Calm - N/A   Mostly Cloudy